StationID,Date,MaxTemp,MinTemp,Precipitation,Snowfall,SnowDepth
"UKW00035049","1951-07-13",66.92,51.08,,0.00,0.00
"UKW00035049","1951-07-14",66.02,48.92,,0.00,0.00
"UKW00035049","1951-07-15",66.92,48.92,0.00,0.00,0.00
"UKW00035049","1951-07-16",73.94,48.92,0.00,0.00,0.00
"UKW00035049","1951-07-17",77.00,53.96,0.00,0.00,0.00
"UKW00035049","1951-07-18",69.08,55.94,0.00,0.00,0.00
"UKW00035049","1951-07-19",75.92,55.94,0.00,0.00,0.00
"UKW00035049","1951-07-20",68.00,53.96,0.00,0.00,0.00
"UKW00035049","1951-07-21",73.94,51.98,0.00,0.00,0.00
"UKW00035049","1951-07-22",73.94,51.08,23.00,0.00,0.00
"UKW00035049","1951-07-23",68.00,51.98,13.00,0.00,0.00
"UKW00035049","1951-07-24",62.96,48.02,0.00,0.00,0.00
"UKW00035049","1951-07-25",71.96,48.02,0.00,0.00,0.00
"UKW00035049","1951-07-26",73.94,55.94,0.00,0.00,0.00
"UKW00035049","1951-07-27",73.94,55.94,0.00,0.00,0.00
"UKW00035049","1951-07-28",78.08,55.04,0.00,0.00,0.00
"UKW00035049","1951-07-29",69.08,50.00,0.00,0.00,0.00
"UKW00035049","1951-07-30",73.04,44.96,0.00,0.00,0.00
"UKW00035049","1951-07-31",75.02,62.06,155.00,0.00,0.00
"UKW00035049","1951-08-01",73.04,57.92,0.00,0.00,0.00
"UKW00035049","1951-08-02",75.92,53.06,0.00,0.00,0.00
"UKW00035049","1951-08-03",75.92,53.06,0.00,0.00,0.00
"UKW00035049","1951-08-04",71.96,53.96,0.00,0.00,0.00
"UKW00035049","1951-08-05",71.96,55.04,0.00,0.00,0.00
"UKW00035049","1951-08-06",69.08,57.02,229.00,0.00,0.00
"UKW00035049","1951-08-07",69.08,55.04,46.00,0.00,0.00
"UKW00035049","1951-08-08",69.98,50.00,0.00,0.00,0.00
"UKW00035049","1951-08-09",69.98,53.06,3.00,0.00,0.00
"UKW00035049","1951-08-10",64.94,51.08,0.00,0.00,0.00
"UKW00035049","1951-08-11",62.96,48.92,84.00,0.00,0.00
"UKW00035049","1951-08-12",60.08,48.92,97.00,0.00,0.00
"UKW00035049","1951-08-13",64.04,46.94,0.00,0.00,0.00
"UKW00035049","1951-08-14",60.98,51.98,0.00,0.00,0.00
"UKW00035049","1951-08-15",64.94,46.94,0.00,0.00,0.00
"UKW00035049","1951-08-16",66.92,48.92,0.00,0.00,0.00
"UKW00035049","1951-08-17",62.96,50.00,13.00,0.00,0.00
"UKW00035049","1951-08-18",71.06,48.02,0.00,0.00,0.00
"UKW00035049","1951-08-19",69.98,55.94,48.00,0.00,0.00
"UKW00035049","1951-08-20",69.98,51.08,0.00,0.00,0.00
"UKW00035049","1951-08-21",69.08,48.02,0.00,0.00,0.00
"UKW00035049","1951-08-22",66.92,51.98,69.00,0.00,0.00
"UKW00035049","1951-08-23",69.98,48.02,0.00,0.00,0.00
"UKW00035049","1951-08-24",66.92,53.06,0.00,0.00,0.00
"UKW00035049","1951-08-25",62.96,51.08,0.00,0.00,0.00
"UKW00035049","1951-08-26",64.94,55.04,56.00,0.00,0.00
"UKW00035049","1951-08-27",64.04,51.08,64.00,0.00,0.00
"UKW00035049","1951-08-28",68.00,55.94,0.00,0.00,0.00
"UKW00035049","1951-08-29",68.00,57.02,0.00,0.00,0.00
"UKW00035049","1951-08-30",64.94,53.96,10.00,0.00,0.00
"UKW00035049","1951-08-31",66.02,53.06,0.00,0.00,0.00
"UKW00035049","1951-09-01",64.94,50.00,13.00,0.00,0.00
"UKW00035049","1951-09-02",66.92,46.94,0.00,0.00,0.00
"UKW00035049","1951-09-03",69.98,46.94,23.00,0.00,0.00
"UKW00035049","1951-09-04",78.08,57.92,0.00,0.00,0.00
"UKW00035049","1951-09-05",69.98,60.08,0.00,0.00,0.00
"UKW00035049","1951-09-06",71.96,59.00,0.00,0.00,0.00
"UKW00035049","1951-09-07",64.04,55.94,191.00,0.00,0.00
"UKW00035049","1951-09-08",66.92,51.98,0.00,0.00,0.00
"UKW00035049","1951-09-09",62.96,51.98,0.00,0.00,0.00
"UKW00035049","1951-09-10",71.96,53.06,0.00,0.00,0.00
"UKW00035049","1951-09-11",75.02,60.98,0.00,0.00,0.00
"UKW00035049","1951-09-12",73.04,60.08,28.00,0.00,0.00
"UKW00035049","1951-09-13",69.08,53.06,53.00,0.00,0.00
"UKW00035049","1951-09-14",66.02,51.98,0.00,0.00,0.00
"UKW00035049","1951-09-15",64.04,51.08,46.00,0.00,0.00
"UKW00035049","1951-09-16",60.08,48.02,20.00,0.00,0.00
"UKW00035049","1951-09-17",62.06,46.04,0.00,0.00,0.00
"UKW00035049","1951-09-18",57.92,50.00,0.00,0.00,0.00
"UKW00035049","1951-09-19",60.08,50.00,0.00,0.00,0.00
"UKW00035049","1951-09-20",57.92,44.06,0.00,0.00,0.00
"UKW00035049","1951-09-21",60.08,44.96,0.00,0.00,0.00
"UKW00035049","1951-09-22",62.96,44.06,0.00,0.00,0.00
"UKW00035049","1951-09-23",66.02,51.98,20.00,0.00,0.00
"UKW00035049","1951-09-24",64.94,50.00,0.00,0.00,0.00
"UKW00035049","1951-09-25",66.02,55.04,20.00,0.00,0.00
"UKW00035049","1951-09-26",64.04,53.96,5.00,0.00,0.00
"UKW00035049","1951-09-27",62.96,50.00,224.00,0.00,0.00
"UKW00035049","1951-09-28",62.96,48.02,38.00,0.00,0.00
"UKW00035049","1951-09-29",64.94,42.08,0.00,0.00,0.00
"UKW00035049","1951-09-30",62.96,42.08,0.00,0.00,0.00
"UKW00035049","1951-10-01",60.08,51.98,0.00,0.00,0.00
"UKW00035049","1951-10-02",57.92,55.04,0.00,0.00,0.00
"UKW00035049","1951-10-03",62.06,44.06,0.00,0.00,0.00
"UKW00035049","1951-10-04",60.08,39.92,0.00,0.00,0.00
"UKW00035049","1951-10-05",57.92,50.00,0.00,0.00,0.00
"UKW00035049","1951-10-06",62.06,46.04,0.00,0.00,0.00
"UKW00035049","1951-10-07",59.00,42.98,0.00,0.00,0.00
"UKW00035049","1951-10-08",60.98,39.92,0.00,0.00,0.00
"UKW00035049","1951-10-09",60.08,37.04,0.00,0.00,0.00
"UKW00035049","1951-10-10",57.92,37.94,0.00,0.00,0.00
"UKW00035049","1951-10-11",60.08,37.04,0.00,0.00,0.00
"UKW00035049","1951-10-12",57.92,39.02,0.00,0.00,0.00
"UKW00035049","1951-10-13",57.02,46.94,0.00,0.00,0.00
"UKW00035049","1951-10-14",62.96,46.94,0.00,0.00,0.00
"UKW00035049","1951-10-15",59.00,42.98,0.00,0.00,0.00
"UKW00035049","1951-10-16",60.98,39.92,0.00,0.00,0.00
"UKW00035049","1951-10-17",57.02,35.96,0.00,0.00,0.00
"UKW00035049","1951-10-18",53.96,44.96,0.00,0.00,0.00
"UKW00035049","1951-10-19",53.96,39.92,0.00,0.00,0.00
"UKW00035049","1951-10-20",57.02,42.08,0.00,0.00,0.00
"UKW00035049","1951-10-21",51.98,39.02,5.00,0.00,0.00
"UKW00035049","1951-10-22",44.96,33.98,254.00,0.00,0.00
"UKW00035049","1951-10-23",46.94,33.08,0.00,0.00,0.00
"UKW00035049","1951-10-24",51.98,28.94,0.00,0.00,0.00
"UKW00035049","1951-10-25",55.94,28.04,0.00,0.00,0.00
"UKW00035049","1951-10-26",51.08,35.06,0.00,0.00,0.00
"UKW00035049","1951-10-27",57.02,48.02,0.00,0.00,0.00
"UKW00035049","1951-10-28",57.92,44.06,0.00,0.00,0.00
"UKW00035049","1951-10-29",55.04,46.94,8.00,0.00,0.00
"UKW00035049","1951-10-30",53.96,41.00,0.00,0.00,0.00
"UKW00035049","1951-10-31",46.94,39.92,30.00,0.00,0.00
"UKW00035049","1951-11-01",50.00,39.02,0.00,0.00,0.00
"UKW00035049","1951-11-02",53.06,37.94,97.00,0.00,0.00
"UKW00035049","1951-11-03",48.02,35.06,0.00,0.00,0.00
"UKW00035049","1951-11-04",50.00,35.96,13.00,0.00,0.00
"UKW00035049","1951-11-05",53.06,48.92,43.00,0.00,0.00
"UKW00035049","1951-11-06",55.94,48.92,38.00,0.00,0.00
"UKW00035049","1951-11-07",53.96,42.08,8.00,0.00,0.00
"UKW00035049","1951-11-08",55.04,42.08,18.00,0.00,0.00
"UKW00035049","1951-11-09",55.94,44.06,3.00,0.00,0.00
"UKW00035049","1951-11-10",53.96,46.04,10.00,0.00,0.00
"UKW00035049","1951-11-11",55.04,44.06,0.00,0.00,0.00
"UKW00035049","1951-11-12",53.96,44.96,0.00,0.00,0.00
"UKW00035049","1951-11-13",50.00,44.06,0.00,0.00,0.00
"UKW00035049","1951-11-14",51.08,37.94,0.00,0.00,0.00
"UKW00035049","1951-11-15",55.04,37.94,8.00,0.00,0.00
"UKW00035049","1951-11-16",53.96,44.06,0.00,0.00,0.00
"UKW00035049","1951-11-17",57.92,44.96,112.00,0.00,0.00
"UKW00035049","1951-11-18",51.98,42.98,51.00,0.00,0.00
"UKW00035049","1951-11-19",51.08,42.98,0.00,0.00,0.00
"UKW00035049","1951-11-20",53.06,44.06,109.00,0.00,0.00
"UKW00035049","1951-11-21",48.02,42.08,8.00,0.00,0.00
"UKW00035049","1951-11-22",48.92,41.00,0.00,0.00,0.00
"UKW00035049","1951-11-23",46.94,39.92,33.00,0.00,0.00
"UKW00035049","1951-11-24",57.92,46.04,165.00,0.00,0.00
"UKW00035049","1951-11-25",50.00,33.08,89.00,0.00,0.00
"UKW00035049","1951-11-26",41.00,30.02,0.00,0.00,0.00
"UKW00035049","1951-11-27",48.02,35.96,0.00,0.00,0.00
"UKW00035049","1951-11-28",46.04,35.96,3.00,0.00,0.00
"UKW00035049","1951-11-29",50.00,33.98,5.00,0.00,0.00
"UKW00035049","1951-11-30",50.00,44.96,0.00,0.00,0.00
"UKW00035049","1951-12-01",46.94,37.94,0.00,0.00,0.00
"UKW00035049","1951-12-02",46.94,33.98,0.00,0.00,0.00
"UKW00035049","1951-12-03",44.06,30.02,8.00,0.00,0.00
"UKW00035049","1951-12-04",51.08,44.06,0.00,0.00,0.00
"UKW00035049","1951-12-05",53.06,42.98,18.00,0.00,0.00
"UKW00035049","1951-12-06",42.98,33.98,3.00,0.00,0.00
"UKW00035049","1951-12-07",42.08,32.00,0.00,0.00,0.00
"UKW00035049","1951-12-08",51.08,42.08,5.00,0.00,0.00
"UKW00035049","1951-12-09",44.96,37.94,0.00,0.00,0.00
"UKW00035049","1951-12-10",37.94,28.04,0.00,0.00,0.00
"UKW00035049","1951-12-11",39.02,26.06,0.00,0.00,0.00
"UKW00035049","1951-12-12",42.08,24.08,0.00,0.00,0.00
"UKW00035049","1951-12-13",39.92,21.92,0.00,0.00,0.00
"UKW00035049","1951-12-14",41.00,30.92,0.00,0.00,0.00
"UKW00035049","1951-12-15",51.08,41.00,0.00,0.00,0.00
"UKW00035049","1951-12-16",51.98,44.96,0.00,0.00,0.00
"UKW00035049","1951-12-17",48.02,42.08,0.00,0.00,0.00
"UKW00035049","1951-12-18",50.00,44.06,13.00,0.00,0.00
"UKW00035049","1951-12-19",51.08,42.98,5.00,0.00,0.00
"UKW00035049","1951-12-20",48.02,42.98,46.00,0.00,0.00
"UKW00035049","1951-12-21",46.94,39.92,0.00,0.00,0.00
"UKW00035049","1951-12-22",46.04,37.94,0.00,0.00,0.00
"UKW00035049","1951-12-23",48.92,41.00,0.00,0.00,0.00
"UKW00035049","1951-12-24",51.08,48.92,10.00,0.00,0.00
"UKW00035049","1951-12-25",50.00,35.06,28.00,0.00,0.00
"UKW00035049","1951-12-26",41.00,28.94,0.00,0.00,0.00
"UKW00035049","1951-12-27",44.06,35.06,33.00,0.00,0.00
"UKW00035049","1951-12-28",44.06,37.04,91.00,0.00,0.00
"UKW00035049","1951-12-29",41.00,33.08,36.00,0.00,0.00
"UKW00035049","1951-12-30",50.00,33.08,8.00,0.00,0.00
"UKW00035049","1951-12-31",39.92,32.00,0.00,0.00,0.00
"UKW00035049","1952-01-01",39.92,35.06,10.00,0.00,0.00
"UKW00035049","1952-01-02",46.94,33.98,8.00,0.00,0.00
"UKW00035049","1952-01-03",37.94,30.92,0.00,0.00,0.00
"UKW00035049","1952-01-04",42.98,30.02,46.00,0.00,0.00
"UKW00035049","1952-01-05",42.98,37.94,0.00,0.00,0.00
"UKW00035049","1952-01-06",46.94,37.94,0.00,0.00,0.00
"UKW00035049","1952-01-07",50.00,46.04,0.00,0.00,0.00
"UKW00035049","1952-01-08",48.02,42.98,5.00,0.00,0.00
"UKW00035049","1952-01-09",42.98,33.98,18.00,0.00,0.00
"UKW00035049","1952-01-10",50.00,35.06,38.00,0.00,0.00
"UKW00035049","1952-01-11",50.00,37.04,5.00,0.00,0.00
"UKW00035049","1952-01-12",42.98,33.08,20.00,0.00,0.00
"UKW00035049","1952-01-13",42.98,28.94,48.00,0.00,0.00
"UKW00035049","1952-01-14",48.02,37.04,0.00,0.00,0.00
"UKW00035049","1952-01-15",51.98,41.00,0.00,0.00,0.00
"UKW00035049","1952-01-16",41.00,33.98,25.00,0.00,0.00
"UKW00035049","1952-01-17",37.94,33.08,53.00,0.00,0.00
"UKW00035049","1952-01-18",37.04,33.08,3.00,0.00,0.00
"UKW00035049","1952-01-19",39.92,30.92,5.00,0.00,0.00
"UKW00035049","1952-01-20",39.02,30.02,0.00,0.00,0.00
"UKW00035049","1952-01-21",37.94,33.08,3.00,0.00,0.00
"UKW00035049","1952-01-22",35.96,33.08,3.00,0.00,0.00
"UKW00035049","1952-01-23",37.04,35.06,10.00,0.00,0.00
"UKW00035049","1952-01-24",35.96,30.02,3.00,0.00,0.00
"UKW00035049","1952-01-25",33.98,30.92,0.00,0.00,0.00
"UKW00035049","1952-01-26",32.00,21.02,0.00,0.00,0.00
"UKW00035049","1952-01-27",30.92,19.94,0.00,0.00,0.00
"UKW00035049","1952-01-28",37.04,17.06,53.00,0.00,0.00
"UKW00035049","1952-01-29",41.00,30.92,0.00,0.00,0.00
"UKW00035049","1952-01-30",42.98,32.00,0.00,0.00,0.00
"UKW00035049","1952-01-31",39.92,33.98,20.00,0.00,0.00
"UKW00035049","1952-02-01",37.04,33.08,0.00,0.00,0.00
"UKW00035049","1952-02-02",42.08,33.08,0.00,0.00,0.00
"UKW00035049","1952-02-03",42.08,33.08,0.00,0.00,0.00
"UKW00035049","1952-02-04",41.00,30.92,0.00,0.00,0.00
"UKW00035049","1952-02-05",39.92,28.04,0.00,0.00,0.00
"UKW00035049","1952-02-06",46.04,35.06,25.00,0.00,0.00
"UKW00035049","1952-02-07",42.98,37.04,0.00,0.00,0.00
"UKW00035049","1952-02-08",39.92,33.08,0.00,0.00,0.00
"UKW00035049","1952-02-09",37.04,28.94,0.00,0.00,0.00
"UKW00035049","1952-02-10",42.08,26.06,41.00,0.00,0.00
"UKW00035049","1952-02-11",42.98,30.02,30.00,0.00,0.00
"UKW00035049","1952-02-12",37.04,28.94,0.00,0.00,0.00
"UKW00035049","1952-02-13",37.94,28.04,0.00,0.00,0.00
"UKW00035049","1952-02-14",37.94,30.92,36.00,89.00,25.00
"UKW00035049","1952-02-15",39.92,21.92,0.00,0.00,25.00
"UKW00035049","1952-02-16",37.04,21.92,0.00,0.00,25.00
"UKW00035049","1952-02-17",42.08,33.98,216.00,0.00,0.00
"UKW00035049","1952-02-18",42.08,37.94,0.00,0.00,0.00
"UKW00035049","1952-02-19",42.98,39.02,10.00,0.00,0.00
"UKW00035049","1952-02-20",46.94,37.04,0.00,0.00,0.00
"UKW00035049","1952-02-21",48.02,35.96,0.00,0.00,0.00
"UKW00035049","1952-02-22",42.08,35.06,0.00,0.00,0.00
"UKW00035049","1952-02-23",51.08,33.98,0.00,0.00,0.00
"UKW00035049","1952-02-24",46.94,30.02,0.00,0.00,0.00
"UKW00035049","1952-02-25",46.94,32.00,0.00,0.00,0.00
"UKW00035049","1952-02-26",44.06,28.04,0.00,0.00,0.00
"UKW00035049","1952-02-27",46.04,24.08,0.00,0.00,0.00
"UKW00035049","1952-02-28",39.02,24.98,0.00,0.00,0.00
"UKW00035049","1952-02-29",50.00,39.02,0.00,0.00,0.00
"UKW00035049","1952-03-01",51.08,37.94,0.00,0.00,0.00
"UKW00035049","1952-03-02",51.08,39.92,0.00,0.00,0.00
"UKW00035049","1952-03-03",53.96,44.96,0.00,0.00,0.00
"UKW00035049","1952-03-04",48.92,41.00,0.00,0.00,0.00
"UKW00035049","1952-03-05",50.00,37.04,51.00,0.00,0.00
"UKW00035049","1952-03-06",48.92,33.98,13.00,0.00,0.00
"UKW00035049","1952-03-07",48.92,44.96,23.00,0.00,0.00
"UKW00035049","1952-03-08",53.96,48.02,0.00,0.00,0.00
"UKW00035049","1952-03-09",50.00,44.96,71.00,0.00,0.00
"UKW00035049","1952-03-10",53.06,37.94,0.00,0.00,0.00
"UKW00035049","1952-03-11",53.06,35.06,0.00,0.00,0.00
"UKW00035049","1952-03-12",46.94,33.08,0.00,0.00,0.00
"UKW00035049","1952-03-13",42.08,37.04,0.00,0.00,0.00
"UKW00035049","1952-03-14",42.08,30.92,0.00,0.00,0.00
"UKW00035049","1952-03-15",46.94,28.04,0.00,0.00,0.00
"UKW00035049","1952-03-16",53.96,35.06,0.00,0.00,0.00
"UKW00035049","1952-03-17",57.92,44.06,23.00,0.00,0.00
"UKW00035049","1952-03-18",55.94,39.02,0.00,0.00,0.00
"UKW00035049","1952-03-19",51.08,35.96,0.00,0.00,0.00
"UKW00035049","1952-03-20",53.06,42.98,18.00,0.00,0.00
"UKW00035049","1952-03-21",53.96,42.08,10.00,0.00,0.00
"UKW00035049","1952-03-22",55.94,39.02,5.00,0.00,0.00
"UKW00035049","1952-03-23",51.08,35.96,3.00,0.00,0.00
"UKW00035049","1952-03-24",48.02,41.00,107.00,0.00,0.00
"UKW00035049","1952-03-25",46.04,35.06,28.00,0.00,0.00
"UKW00035049","1952-03-26",42.08,28.94,3.00,0.00,0.00
"UKW00035049","1952-03-27",37.94,28.04,0.00,0.00,0.00
"UKW00035049","1952-03-28",35.06,30.02,38.00,38.00,0.00
"UKW00035049","1952-03-29",33.98,30.92,28.00,28.00,25.00
"UKW00035049","1952-03-30",35.06,32.00,64.00,64.00,76.00
"UKW00035049","1952-03-31",39.02,32.00,0.00,0.00,0.00
"UKW00035049","1952-04-01",42.08,30.02,0.00,0.00,0.00
"UKW00035049","1952-04-02",42.98,30.92,0.00,0.00,0.00
"UKW00035049","1952-04-03",48.02,30.02,0.00,0.00,0.00
"UKW00035049","1952-04-04",48.92,35.96,0.00,0.00,0.00
"UKW00035049","1952-04-05",48.92,33.98,0.00,0.00,0.00
"UKW00035049","1952-04-06",50.00,37.04,13.00,0.00,0.00
"UKW00035049","1952-04-07",55.04,42.08,3.00,0.00,0.00
"UKW00035049","1952-04-08",48.92,42.08,64.00,0.00,0.00
"UKW00035049","1952-04-09",64.94,41.00,0.00,0.00,0.00
"UKW00035049","1952-04-10",60.98,46.94,28.00,0.00,0.00
"UKW00035049","1952-04-11",57.92,44.06,0.00,0.00,0.00
"UKW00035049","1952-04-12",55.94,42.98,0.00,0.00,0.00
"UKW00035049","1952-04-13",64.94,46.04,0.00,0.00,0.00
"UKW00035049","1952-04-14",66.02,42.08,0.00,0.00,0.00
"UKW00035049","1952-04-15",55.94,48.02,43.00,0.00,0.00
"UKW00035049","1952-04-16",62.06,42.98,0.00,0.00,0.00
"UKW00035049","1952-04-17",62.96,39.92,0.00,0.00,0.00
"UKW00035049","1952-04-18",69.08,37.94,0.00,0.00,0.00
"UKW00035049","1952-04-19",73.94,48.02,0.00,0.00,0.00
"UKW00035049","1952-04-20",60.08,48.02,0.00,0.00,0.00
"UKW00035049","1952-04-21",53.06,44.96,38.00,0.00,0.00
"UKW00035049","1952-04-22",55.04,41.00,0.00,0.00,0.00
"UKW00035049","1952-04-23",51.98,41.00,61.00,0.00,0.00
"UKW00035049","1952-04-24",51.98,39.02,0.00,0.00,0.00
"UKW00035049","1952-04-25",57.02,41.00,0.00,0.00,0.00
"UKW00035049","1952-04-26",60.08,37.94,0.00,0.00,0.00
"UKW00035049","1952-04-27",55.04,39.92,0.00,0.00,0.00
"UKW00035049","1952-04-28",53.06,39.02,0.00,0.00,0.00
"UKW00035049","1952-04-29",60.08,35.06,0.00,0.00,0.00
"UKW00035049","1952-04-30",69.98,42.98,0.00,0.00,0.00
"UKW00035049","1952-05-01",66.92,48.02,0.00,0.00,0.00
"UKW00035049","1952-05-02",59.00,46.94,0.00,0.00,0.00
"UKW00035049","1952-05-03",57.02,46.04,8.00,0.00,0.00
"UKW00035049","1952-05-04",64.04,48.92,8.00,0.00,0.00
"UKW00035049","1952-05-05",62.06,48.92,112.00,0.00,0.00
"UKW00035049","1952-05-06",60.98,48.02,0.00,0.00,0.00
"UKW00035049","1952-05-07",60.98,44.06,0.00,0.00,0.00
"UKW00035049","1952-05-08",66.92,46.94,64.00,0.00,0.00
"UKW00035049","1952-05-09",62.96,44.06,13.00,0.00,0.00
"UKW00035049","1952-05-10",64.94,42.98,0.00,0.00,0.00
"UKW00035049","1952-05-11",59.00,46.04,0.00,0.00,0.00
"UKW00035049","1952-05-12",62.06,44.96,64.00,0.00,0.00
"UKW00035049","1952-05-13",64.04,46.04,0.00,0.00,0.00
"UKW00035049","1952-05-14",64.94,50.00,0.00,0.00,0.00
"UKW00035049","1952-05-15",68.00,51.08,0.00,0.00,0.00
"UKW00035049","1952-05-16",71.96,46.94,0.00,0.00,0.00
"UKW00035049","1952-05-17",73.94,48.92,0.00,0.00,0.00
"UKW00035049","1952-05-18",77.00,53.06,0.00,0.00,0.00
"UKW00035049","1952-05-19",73.94,51.08,0.00,0.00,0.00
"UKW00035049","1952-05-20",60.08,44.96,0.00,0.00,0.00
"UKW00035049","1952-05-21",62.06,42.08,0.00,0.00,0.00
"UKW00035049","1952-05-22",64.94,39.92,0.00,0.00,0.00
"UKW00035049","1952-05-23",64.04,42.08,0.00,0.00,0.00
"UKW00035049","1952-05-24",68.00,42.08,0.00,0.00,0.00
"UKW00035049","1952-05-25",71.96,44.96,0.00,0.00,0.00
"UKW00035049","1952-05-26",66.02,46.94,0.00,0.00,0.00
"UKW00035049","1952-05-27",69.08,48.92,0.00,0.00,0.00
"UKW00035049","1952-05-28",60.08,46.04,0.00,0.00,0.00
"UKW00035049","1952-05-29",59.00,44.06,0.00,0.00,0.00
"UKW00035049","1952-05-30",62.96,41.00,8.00,0.00,0.00
"UKW00035049","1952-05-31",60.08,53.06,13.00,0.00,0.00
"UKW00035049","1952-06-01",64.94,48.92,0.00,0.00,0.00
"UKW00035049","1952-06-02",62.06,48.02,191.00,0.00,0.00
"UKW00035049","1952-06-03",60.98,44.96,0.00,0.00,0.00
"UKW00035049","1952-06-04",66.02,42.98,0.00,0.00,0.00
"UKW00035049","1952-06-05",73.94,48.92,0.00,0.00,0.00
"UKW00035049","1952-06-06",71.06,50.00,30.00,0.00,0.00
"UKW00035049","1952-06-07",60.98,44.06,0.00,0.00,0.00
"UKW00035049","1952-06-08",60.98,42.98,13.00,0.00,0.00
"UKW00035049","1952-06-09",66.02,46.04,0.00,0.00,0.00
"UKW00035049","1952-06-10",71.96,46.04,0.00,0.00,0.00
"UKW00035049","1952-06-11",71.06,51.08,0.00,0.00,0.00
"UKW00035049","1952-06-12",69.98,51.98,0.00,0.00,0.00
"UKW00035049","1952-06-13",71.06,48.92,91.00,0.00,0.00
"UKW00035049","1952-06-14",64.04,51.08,0.00,0.00,0.00
"UKW00035049","1952-06-15",55.04,46.04,23.00,0.00,0.00
"UKW00035049","1952-06-16",60.98,42.08,0.00,0.00,0.00
"UKW00035049","1952-06-17",66.02,48.02,0.00,0.00,0.00
"UKW00035049","1952-06-18",64.94,50.00,0.00,0.00,0.00
"UKW00035049","1952-06-19",60.98,48.02,0.00,0.00,0.00
"UKW00035049","1952-06-20",60.98,46.04,41.00,0.00,0.00
"UKW00035049","1952-06-21",60.98,51.98,33.00,0.00,0.00
"UKW00035049","1952-06-22",64.94,50.00,15.00,0.00,0.00
"UKW00035049","1952-06-23",62.96,48.02,0.00,0.00,0.00
"UKW00035049","1952-06-24",68.00,46.94,0.00,0.00,0.00
"UKW00035049","1952-06-25",71.06,55.04,0.00,0.00,0.00
"UKW00035049","1952-06-26",68.00,51.08,0.00,0.00,0.00
"UKW00035049","1952-06-27",80.06,55.04,0.00,0.00,0.00
"UKW00035049","1952-06-28",80.06,55.04,0.00,0.00,0.00
"UKW00035049","1952-06-29",84.02,57.02,0.00,0.00,0.00
"UKW00035049","1952-06-30",84.92,62.96,0.00,0.00,0.00
"UKW00035049","1952-07-01",82.94,62.96,0.00,0.00,0.00
"UKW00035049","1952-07-02",80.96,60.08,76.00,0.00,0.00
"UKW00035049","1952-07-03",60.08,51.98,30.00,0.00,0.00
"UKW00035049","1952-07-04",66.92,50.00,0.00,0.00,0.00
"UKW00035049","1952-07-05",73.04,53.06,0.00,0.00,0.00
"UKW00035049","1952-07-06",82.04,55.94,13.00,0.00,0.00
"UKW00035049","1952-07-07",77.00,55.04,0.00,0.00,0.00
"UKW00035049","1952-07-08",69.98,57.92,0.00,0.00,0.00
"UKW00035049","1952-07-09",75.02,55.04,0.00,0.00,0.00
"UKW00035049","1952-07-10",78.08,57.02,0.00,0.00,0.00
"UKW00035049","1952-07-11",71.96,55.94,15.00,0.00,0.00
"UKW00035049","1952-07-12",64.04,53.96,0.00,0.00,0.00
"UKW00035049","1952-07-13",69.08,55.94,0.00,0.00,0.00
"UKW00035049","1952-07-14",62.96,48.92,0.00,0.00,0.00
"UKW00035049","1952-07-15",66.02,44.96,0.00,0.00,0.00
"UKW00035049","1952-07-16",64.94,44.96,0.00,0.00,0.00
"UKW00035049","1952-07-17",64.04,53.96,25.00,0.00,0.00
"UKW00035049","1952-07-18",64.04,57.02,0.00,0.00,0.00
"UKW00035049","1952-07-19",75.92,59.00,0.00,0.00,0.00
"UKW00035049","1952-07-20",75.02,57.02,0.00,0.00,0.00
"UKW00035049","1952-07-21",80.06,57.92,0.00,0.00,0.00
"UKW00035049","1952-07-22",80.96,60.08,0.00,0.00,0.00
"UKW00035049","1952-07-23",68.00,51.08,0.00,0.00,0.00
"UKW00035049","1952-07-24",69.08,48.02,0.00,0.00,0.00
"UKW00035049","1952-07-25",78.08,48.02,0.00,0.00,0.00
"UKW00035049","1952-07-26",75.02,53.96,0.00,0.00,0.00
"UKW00035049","1952-07-27",60.98,48.02,0.00,0.00,0.00
"UKW00035049","1952-07-28",55.94,46.04,66.00,0.00,0.00
"UKW00035049","1952-07-29",64.94,46.04,0.00,0.00,0.00
"UKW00035049","1952-07-30",68.00,51.08,13.00,0.00,0.00
"UKW00035049","1952-07-31",77.00,48.92,0.00,0.00,0.00
"UKW00035049","1952-08-01",69.98,55.94,74.00,0.00,0.00
"UKW00035049","1952-08-02",64.04,53.96,15.00,0.00,0.00
"UKW00035049","1952-08-03",68.00,51.08,20.00,0.00,0.00
"UKW00035049","1952-08-04",69.08,53.06,0.00,0.00,0.00
"UKW00035049","1952-08-05",69.08,57.92,99.00,0.00,0.00
"UKW00035049","1952-08-06",75.02,55.04,0.00,0.00,0.00
"UKW00035049","1952-08-07",71.06,57.02,97.00,0.00,0.00
"UKW00035049","1952-08-08",69.98,55.04,0.00,0.00,0.00
"UKW00035049","1952-08-09",66.02,57.02,33.00,0.00,0.00
"UKW00035049","1952-08-10",66.92,55.94,0.00,0.00,0.00
"UKW00035049","1952-08-11",71.96,53.06,0.00,0.00,0.00
"UKW00035049","1952-08-12",75.92,60.08,0.00,0.00,0.00
"UKW00035049","1952-08-13",75.02,57.92,0.00,0.00,0.00
"UKW00035049","1952-08-14",71.96,51.98,0.00,0.00,0.00
"UKW00035049","1952-08-15",69.98,51.98,3.00,0.00,0.00
"UKW00035049","1952-08-16",62.96,55.94,53.00,0.00,0.00
"UKW00035049","1952-08-17",60.98,48.02,0.00,0.00,0.00
"UKW00035049","1952-08-18",62.06,44.96,0.00,0.00,0.00
"UKW00035049","1952-08-19",64.94,53.96,56.00,0.00,0.00
"UKW00035049","1952-08-20",62.06,51.98,15.00,0.00,0.00
"UKW00035049","1952-08-21",64.94,46.94,0.00,0.00,0.00
"UKW00035049","1952-08-22",69.98,48.92,0.00,0.00,0.00
"UKW00035049","1952-08-23",73.04,51.98,0.00,0.00,0.00
"UKW00035049","1952-08-24",69.98,51.98,0.00,0.00,0.00
"UKW00035049","1952-08-25",71.06,53.06,0.00,0.00,0.00
"UKW00035049","1952-08-26",71.96,55.94,0.00,0.00,0.00
"UKW00035049","1952-08-27",71.06,60.98,0.00,0.00,0.00
"UKW00035049","1952-08-28",68.00,48.92,0.00,0.00,0.00
"UKW00035049","1952-08-29",75.92,46.04,0.00,0.00,0.00
"UKW00035049","1952-08-30",73.94,53.96,0.00,0.00,0.00
"UKW00035049","1952-08-31",73.94,55.94,0.00,0.00,0.00
"UKW00035049","1952-09-01",69.98,51.08,0.00,0.00,0.00
"UKW00035049","1952-09-02",66.02,51.08,0.00,0.00,0.00
"UKW00035049","1952-09-03",69.98,48.92,0.00,0.00,0.00
"UKW00035049","1952-09-04",60.08,44.96,0.00,0.00,0.00
"UKW00035049","1952-09-05",60.98,44.06,5.00,0.00,0.00
"UKW00035049","1952-09-06",55.94,42.08,18.00,0.00,0.00
"UKW00035049","1952-09-07",55.94,37.94,0.00,0.00,0.00
"UKW00035049","1952-09-08",57.02,44.06,30.00,0.00,0.00
"UKW00035049","1952-09-09",57.92,44.96,46.00,0.00,0.00
"UKW00035049","1952-09-10",60.08,46.04,15.00,0.00,0.00
"UKW00035049","1952-09-11",60.08,44.96,25.00,0.00,0.00
"UKW00035049","1952-09-12",62.96,48.02,0.00,0.00,0.00
"UKW00035049","1952-09-13",60.08,42.98,0.00,0.00,0.00
"UKW00035049","1952-09-14",59.00,41.00,3.00,0.00,0.00
"UKW00035049","1952-09-15",62.06,50.00,5.00,0.00,0.00
"UKW00035049","1952-09-16",62.06,48.02,0.00,0.00,0.00